Location: Rounton
(54.4000°N, 1.3500°W)
Time: 05:02:34
(UTC+00:00)

A-11 Canister half - All Passes

Search period start: 23 February 2024 00:00
Search period end: 04 March 2024 00:00
Orbit: 1512 x 1687 km, 47.2° (Epoch: 22 February)

Date Brightness Start Highest point End Pass type
(mag) Time Alt. Az. Time Alt. Az. Time Alt. Az.
23 Feb - 01:14:47 10° S 01:21:50 22° SE 01:28:48 10° E visible
23 Feb - 03:15:35 10° SW 03:24:59 45° SSE 03:34:08 10° E visible
23 Feb - 05:19:14 10° WSW 05:29:00 58° S 05:38:26 10° ESE visible
23 Feb - 07:23:45 10° W 07:32:58 45° SSW 07:41:51 10° SE daylight
23 Feb - 09:29:17 10° W 09:35:57 21° SW 09:42:28 10° S daylight
24 Feb - 00:52:11 10° S 00:58:58 21° SE 01:05:42 10° E visible
24 Feb - 02:52:41 10° SW 03:02:02 44° SSE 03:11:11 10° E visible
24 Feb - 04:56:16 10° WSW 05:06:02 58° S 05:15:30 10° ESE visible
24 Feb - 07:00:45 10° W 07:10:03 46° SSW 07:19:00 10° SE daylight
24 Feb - 09:06:10 10° W 09:13:07 22° SW 09:19:54 10° S daylight
25 Feb - 00:29:35 10° S 00:36:06 20° SE 00:42:33 10° E visible
25 Feb - 02:29:49 10° SW 02:39:06 43° SSE 02:48:12 10° E visible
25 Feb - 04:33:17 10° WSW 04:43:05 58° S 04:52:34 10° ESE visible
25 Feb - 06:37:44 10° W 06:47:07 48° SSW 06:56:10 10° SE daylight
25 Feb - 08:43:03 10° W 08:50:15 24° SW 08:57:17 10° S daylight
26 Feb - 00:07:03 10° SSE 00:13:15 18° SE 00:19:24 10° E visible
26 Feb - 02:06:57 10° SW 02:16:11 42° SSE 02:25:14 10° E visible
26 Feb - 04:10:18 10° WSW 04:20:07 58° S 04:29:38 10° E visible
26 Feb - 06:14:45 10° W 06:24:11 49° SSW 06:33:17 10° SE visible
26 Feb - 08:19:57 10° W 08:27:24 25° SW 08:34:39 10° S daylight
26 Feb - 23:44:32 10° SSE 23:50:24 17° SE 23:56:13 10° E visible
27 Feb - 01:44:04 10° SW 01:53:15 41° SSE 02:02:16 10° E visible
27 Feb - 03:47:20 10° WSW 03:57:09 58° S 04:06:42 10° E visible
27 Feb - 05:51:45 10° W 06:01:15 50° SSW 06:10:26 10° SE visible
27 Feb - 07:56:51 10° W 08:04:31 27° SW 08:12:00 10° S daylight
27 Feb - 23:22:04 10° SSE 23:27:32 16° SE 23:32:59 10° E visible
28 Feb - 01:21:14 10° SSW 01:30:19 39° SSE 01:39:17 10° E visible
28 Feb - 03:24:22 10° WSW 03:34:11 57° S 03:43:45 10° E visible
28 Feb - 05:28:44 10° W 05:38:18 51° SSW 05:47:34 10° SE visible
28 Feb - 07:33:47 10° W 07:41:40 28° SW 07:49:19 10° SSE daylight
28 Feb - 22:59:41 10° SSE 23:04:42 15° SE 23:09:41 10° E visible
29 Feb - 00:58:22 10° SSW 01:07:24 38° SSE 01:16:18 10° E visible
29 Feb - 03:01:25 10° WSW 03:11:14 57° S 03:20:49 10° E visible
29 Feb - 05:05:45 10° W 05:15:21 52° SSW 05:24:41 10° SE visible
29 Feb - 07:10:43 10° W 07:18:47 29° SW 07:26:38 10° SSE daylight
29 Feb - 22:37:21 10° SSE 22:41:51 14° SE 22:46:20 10° E night (unlit)
01 Mar - 00:35:33 10° SSW 00:44:28 37° SSE 00:53:18 10° E visible
01 Mar - 02:38:27 10° WSW 02:48:16 56° S 02:57:52 10° E visible
01 Mar - 04:42:44 10° W 04:52:25 53° SSW 05:01:47 10° ESE visible
01 Mar - 06:47:39 10° W 06:55:54 31° SW 07:03:55 10° SSE daylight
01 Mar - 22:15:08 10° SSE 22:19:01 13° SE 22:22:53 10° ESE night (unlit)
02 Mar - 00:12:45 10° SSW 00:21:33 35° SE 00:30:18 10° E visible
02 Mar - 02:15:29 10° WSW 02:25:18 56° S 02:34:55 10° E visible
02 Mar - 04:19:45 10° W 04:29:28 54° SSW 04:38:53 10° ESE visible
02 Mar - 06:24:37 10° W 06:33:01 32° SW 06:41:11 10° SSE daylight
02 Mar - 21:53:07 10° SE 21:56:11 12° ESE 21:59:15 10° ESE night (unlit)
02 Mar - 23:49:56 10° SSW 23:58:38 34° SE 00:07:17 10° E visible
03 Mar - 01:52:32 10° WSW 02:02:20 55° SSE 02:11:57 10° E visible
03 Mar - 03:56:45 10° W 04:06:30 55° SSW 04:16:00 10° ESE visible
03 Mar - 06:01:34 10° W 06:10:07 34° SW 06:18:26 10° SSE visible
03 Mar - 08:10:02 10° WSW 08:12:27 11° WSW 08:14:51 10° SW daylight
03 Mar - 21:31:27 10° SE 21:33:22 11° ESE 21:35:16 10° ESE night (unlit)
03 Mar - 23:27:09 10° SSW 23:35:44 33° SE 23:44:16 10° E visible
